OMDB Airport Information

Runway Information
Runway 12L Length 13124 ft width 197 ft
Elevation 13 ft Threshold 1312 ft Heading 122
Runway 30R Length 13124 ft Width 197 ft
Elevation 34 ft Threshold 0 ft Heading 302
Runway 12R Length 13124 ft width 151 ft
Elevation 13 ft Threshold 394 ft Heading 121
Runway 30L Length 13124 ft Width 151 ft
Elevation 34 ft Threshold 2953 ft Heading 301
Airport Frequencies
Type ARR Name ARR Frequency 124.9 MHZ
Type ATIS Name ATIS Frequency 131.7 MHZ
Type DEP Name DEP Frequency 124.45 MHZ
Type GND Name GND Frequency 118.35 MHZ
Type TWR Name TWR Frequency 118.75 MHZ
Airport Navaids
Type VOR-DME Name Dubai Frequency 115700 KHZ
Airport Weather Information & NOTAM
ADDS - METARS form results

(0136 UTC 19 August 2018)
 
METAR text: OMDB 190100Z 05007KT 350V110 6000 NSC 34/27 Q0997 NOSIG
Conditions at: OMDB (DUBAI INTL AIRPO, AE) observed 0100 UTC 19 August 2018
Temperature: 34.0°C (93°F)
Dewpoint: 27.0°C (81°F) [RH = 67%]
Pressure (altimeter): 29.44 inches Hg (997.0 mb)
Winds: from the NE (50 degrees) at 8 MPH (7 knots; 3.6 m/s)
Visibility: 4 miles (6 km)
Ceiling: at least 12,000 feet AGL
Clouds: sky clear below 12,000 feet AGL
Weather: no significant weather observed at this time